Change the Weather History Date:

Sunday, January 13, 2013

  Actual Average (KBCB) Record (KBCB)
Temperature  
Mean Temperature 60 °F 31 °F  
Max Temperature 71 °F 41 °F 69 °F (2013)
Min Temperature 48 °F 21 °F -8 °F (1977)
Degree Days  
Heating Degree Days 6 34  
Month to date heating degree days 442  
Since 1 July heating degree days 2589  
Cooling Degree Days 0 0  
Month to date cooling degree days 0  
Year to date cooling degree days 0  
Growing Degree Days 10 (Base 50)    
Moisture  
Dew Point 55 °F    
Average Humidity 84    
Maximum Humidity 100    
Minimum Humidity 50    
Precipitation  
Precipitation 0.00 in 0.10 in 0.65 in (2005)
Month to date precipitation 1.29  
Year to date precipitation 1.29  
Snow  
Snow 0.00 in - - ()
Month to date snowfall  
Since 1 July snowfall  
Snow Depth -    
Sea Level Pressure  
Sea Level Pressure 30.08 in    
Wind  
Wind Speed 4 mph (SSW)    
Max Wind Speed 15 mph    
Max Gust Speed 17 mph    
Visibility 10 miles    
Events      
T = Trace of Precipitation, MM = Missing Value Source: NWS Daily Summary

Daily Weather History Graph

Daily Weather History Graph

Search for Another Location

Airport or City:

Trip Planner

Search our weather history database for the weather conditions in past years. The results will help you decide how hot, cold, wet, or windy it might be!

Date:

Astronomy

Jan. 13, 2013 Rise Set
Actual Time 7:35 AM EST 5:27 PM EST
Civil Twilight 7:07 AM EST 5:56 PM EST
Nautical Twilight 6:35 AM EST 6:28 PM EST
Astronomical Twilight 6:04 AM EST 6:59 PM EST
Moon 8:37 AM EST (1/13) 7:59 PM EST (1/13)
Length of Visible Light 10h 48m
Length of Day
9h 51m
Waxing Crescent, 5% of the Moon is Illuminated
Jan 13
Waxing Crescent
Jan 18
First Quarter
Jan 26
Full
Feb 3
Last Quarter
Feb 10
New

Hourly Weather History & Observations

Time (EST) Temp. Dew Point Humidity Pressure Visibility Wind Dir Wind Speed Gust Speed Precip Events Conditions
12:15 AM 59.0 °F 57.2 °F 94% 30.12 in 10.0 mi Calm Calm - N/A   Clear
12:35 AM 57.2 °F 57.2 °F 100% 30.11 in 10.0 mi South 3.5 mph - N/A   Clear
12:55 AM 57.2 °F 57.2 °F 100% 30.11 in 10.0 mi SSE 4.6 mph - N/A   Clear
1:15 AM 57.2 °F 57.2 °F 100% 30.10 in 10.0 mi SSE 3.5 mph - N/A   Clear
1:35 AM 57.2 °F 55.4 °F 94% 30.10 in 10.0 mi SE 3.5 mph - N/A   Clear
1:55 AM 53.6 °F 53.6 °F 100% 30.10 in 5.0 mi Calm Calm - N/A   Clear
2:15 AM 51.8 °F 51.8 °F 100% 30.11 in - Calm Calm - N/A   Unknown
2:35 AM 48.2 °F 48.2 °F 100% 30.11 in - Calm Calm - N/A   Unknown
2:55 AM 50.0 °F 50.0 °F 100% 30.11 in - Calm Calm - N/A   Unknown
3:15 AM 51.8 °F 51.8 °F 100% 30.10 in 5.0 mi Calm Calm - N/A   Mostly Cloudy
3:35 AM 53.6 °F 53.6 °F 100% 30.09 in 4.0 mi Calm Calm - N/A   Mostly Cloudy
3:55 AM 53.6 °F 53.6 °F 100% 30.08 in 10.0 mi East 4.6 mph - N/A   Scattered Clouds
4:15 AM 55.4 °F 55.4 °F 100% 30.08 in 10.0 mi Calm Calm - N/A   Clear
4:35 AM 55.4 °F 55.4 °F 100% 30.07 in 10.0 mi Calm Calm - N/A   Clear
4:55 AM 48.2 °F 48.2 °F 100% 30.07 in 5.0 mi Calm Calm - N/A   Scattered Clouds
5:15 AM 48.2 °F 48.2 °F 100% 30.07 in 7.0 mi Calm Calm - N/A   Mostly Cloudy
5:35 AM 53.6 °F 53.6 °F 100% 30.07 in 10.0 mi SE 3.5 mph - N/A   Scattered Clouds
5:55 AM 53.6 °F 53.6 °F 100% 30.06 in 10.0 mi SSE 8.1 mph - N/A   Scattered Clouds
6:15 AM 55.4 °F 55.4 °F 100% 30.07 in 10.0 mi Calm Calm - N/A   Clear
6:35 AM 51.8 °F 51.8 °F 100% 30.07 in 7.0 mi Calm Calm - N/A   Clear
6:55 AM 48.2 °F 48.2 °F 100% 30.07 in 10.0 mi Calm Calm - N/A   Clear
7:15 AM 53.6 °F 53.6 °F 100% 30.07 in 10.0 mi SSW 3.5 mph - N/A   Clear
7:35 AM 57.2 °F 57.2 °F 100% 30.07 in 10.0 mi SW 4.6 mph - N/A   Clear
7:55 AM 51.8 °F 50.0 °F 94% 30.08 in 7.0 mi Calm Calm - N/A   Clear
8:15 AM 53.6 °F 53.6 °F 100% 30.11 in 10.0 mi West 5.8 mph - N/A   Clear
8:35 AM 50.0 °F 50.0 °F 100% 30.12 in 7.0 mi Calm Calm - N/A   Clear
8:55 AM 51.8 °F 51.8 °F 100% 30.12 in 10.0 mi NW 4.6 mph - N/A   Clear
9:15 AM 53.6 °F 53.6 °F 100% 30.12 in 10.0 mi Calm Calm - N/A   Clear
9:35 AM 57.2 °F 57.2 °F 100% 30.13 in 10.0 mi Calm Calm - N/A   Clear
9:55 AM 60.8 °F 59.0 °F 94% 30.14 in 10.0 mi SW 4.6 mph - N/A   Clear
10:15 AM 62.6 °F 57.2 °F 82% 30.13 in 10.0 mi SSW 4.6 mph - N/A   Clear
10:35 AM 64.4 °F 55.4 °F 73% 30.13 in 10.0 mi SW 5.8 mph - N/A   Clear
10:55 AM 64.4 °F 55.4 °F 73% 30.12 in 10.0 mi SSW 5.8 mph - N/A   Clear
11:15 AM 66.2 °F 55.4 °F 68% 30.12 in 10.0 mi WSW 5.8 mph - N/A   Clear
11:35 AM 66.2 °F 55.4 °F 68% 30.10 in 10.0 mi SW 4.6 mph - N/A   Clear
11:55 AM 66.2 °F 53.6 °F 64% 30.08 in 10.0 mi SSW 8.1 mph - N/A   Clear
12:15 PM 66.2 °F 53.6 °F 64% 30.07 in 10.0 mi South 4.6 mph - N/A   Clear
12:35 PM 66.2 °F 53.6 °F 64% 30.05 in 10.0 mi SSW 4.6 mph - N/A   Clear
12:55 PM 66.2 °F 51.8 °F 60% 30.05 in 10.0 mi South 4.6 mph - N/A   Clear
1:15 PM 68.0 °F 53.6 °F 60% 30.04 in 10.0 mi SSW 5.8 mph - N/A   Clear
1:35 PM 69.8 °F 51.8 °F 53% 30.03 in 10.0 mi SSW 4.6 mph - N/A   Clear
1:55 PM 69.8 °F 53.6 °F 56% 30.04 in 10.0 mi SW 5.8 mph - N/A   Clear
2:15 PM 69.8 °F 53.6 °F 56% 30.04 in 10.0 mi SSW 5.8 mph - N/A   Scattered Clouds
2:35 PM 71.6 °F 51.8 °F 50% 30.04 in 10.0 mi SSW 4.6 mph - N/A   Mostly Cloudy
2:55 PM 69.8 °F 53.6 °F 56% 30.04 in 10.0 mi South 8.1 mph - N/A   Overcast
3:15 PM 66.2 °F 55.4 °F 68% 30.04 in 10.0 mi South 15.0 mph - N/A   Mostly Cloudy
3:35 PM 66.2 °F 55.4 °F 68% 30.05 in 10.0 mi South 12.7 mph - N/A   Mostly Cloudy
3:55 PM 66.2 °F 55.4 °F 68% 30.06 in 10.0 mi South 10.4 mph 16.1 mph N/A   Mostly Cloudy
4:15 PM 64.4 °F 55.4 °F 73% 30.07 in 10.0 mi South 11.5 mph - N/A   Scattered Clouds
4:35 PM 64.4 °F 55.4 °F 73% 30.07 in 10.0 mi South 9.2 mph - N/A   Scattered Clouds
4:55 PM 64.4 °F 55.4 °F 73% 30.06 in 10.0 mi South 8.1 mph - N/A   Mostly Cloudy
5:15 PM 64.4 °F 55.4 °F 73% 30.06 in 10.0 mi South 9.2 mph - N/A   Scattered Clouds
5:35 PM 62.6 °F 55.4 °F 77% 30.06 in 10.0 mi South 6.9 mph - N/A   Scattered Clouds
5:55 PM 62.6 °F 57.2 °F 82% 30.06 in 10.0 mi South 6.9 mph - N/A   Clear
6:15 PM 62.6 °F 57.2 °F 82% 30.07 in 10.0 mi South 8.1 mph - N/A   Scattered Clouds
6:35 PM 62.6 °F 57.2 °F 82% 30.06 in 10.0 mi SSW 11.5 mph - N/A   Clear
6:55 PM 62.6 °F 57.2 °F 82% 30.06 in 10.0 mi SSW 8.1 mph - N/A   Clear
7:15 PM 62.6 °F 57.2 °F 82% 30.06 in 10.0 mi South 9.2 mph - N/A   Clear
7:35 PM 62.6 °F 57.2 °F 82% 30.05 in 10.0 mi South 11.5 mph - N/A   Clear
7:55 PM 62.6 °F 57.2 °F 82% 30.06 in 10.0 mi South 8.1 mph - N/A   Clear
8:15 PM 62.6 °F 57.2 °F 82% 30.05 in 10.0 mi SSW 12.7 mph 17.3 mph N/A   Clear
8:35 PM 60.8 °F 57.2 °F 88% 30.06 in 10.0 mi SSW 8.1 mph - N/A   Clear
8:55 PM 60.8 °F 57.2 °F 88% 30.06 in 10.0 mi SW 5.8 mph - N/A   Clear
9:15 PM 59.0 °F 55.4 °F 88% 30.06 in 10.0 mi SSW 4.6 mph - N/A   Clear
9:35 PM 60.8 °F 55.4 °F 82% 30.04 in 10.0 mi South 6.9 mph - N/A   Clear
9:55 PM 60.8 °F 55.4 °F 82% 30.05 in 10.0 mi SSW 6.9 mph - N/A   Clear
10:15 PM 60.8 °F 55.4 °F 82% 30.05 in 10.0 mi SW 5.8 mph - N/A   Mostly Cloudy
10:35 PM 60.8 °F 55.4 °F 82% 30.06 in 10.0 mi SW 8.1 mph - N/A   Mostly Cloudy
10:55 PM 60.8 °F 55.4 °F 82% 30.08 in 10.0 mi SW 11.5 mph - N/A   Overcast
11:15 PM 62.6 °F 55.4 °F 77% 30.08 in 10.0 mi SW 10.4 mph - N/A   Overcast
11:35 PM 62.6 °F 55.4 °F 77% 30.09 in 10.0 mi SW 9.2 mph - N/A   Overcast
11:55 PM 60.8 °F 55.4 °F 82% 30.09 in 10.0 mi SW 8.1 mph - N/A   Mostly Cloudy